Change the Weather History Date:

Friday, December 6, 2013

  Actual Average Record
Temperature  
Mean Temperature 71 °F 51 °F  
Max Temperature 77 °F 62 °F 78 °F (1951)
Min Temperature 65 °F 41 °F 24 °F (1962)
Degree Days  
Heating Degree Days 0 14  
Month to date heating degree days 28 81  
Since 1 July heating degree days 376 413  
Cooling Degree Days 6 0  
Month to date cooling degree days 15 0  
Year to date cooling degree days 2362 2364  
Growing Degree Days 20 (Base 50)    
Moisture  
Dew Point 66 °F    
Average Humidity 81    
Maximum Humidity 93    
Minimum Humidity 69    
Precipitation  
Precipitation 0.03 in 0.15 in 1.99 in (1972)
Month to date precipitation 0.80 0.92  
Year to date precipitation 54.58 43.40  
Snow  
Snow 0.00 in 0.00 in 0.00 in (2001)
Month to date snowfall 0.0 0.0  
Since 1 July snowfall 0.0 0.0  
Snow Depth 0.00 in    
Sea Level Pressure  
Sea Level Pressure 30.05 in    
Wind  
Wind Speed 9 mph (SSW)    
Max Wind Speed 23 mph    
Max Gust Speed 31 mph    
Visibility 9 miles    
Events Rain    
T = Trace of Precipitation, MM = Missing Value Source: NWS Daily Summary

Daily Weather History Graph

Daily Weather History Graph

Search for Another Location

Airport or City:

Trip Planner

Search our weather history database for the weather conditions in past years. The results will help you decide how hot, cold, wet, or windy it might be!

Date:

Astronomy

Dec. 06, 2013 Rise Set
Actual Time 7:27 AM EST 5:33 PM EST
Civil Twilight 7:00 AM EST 6:00 PM EST
Nautical Twilight 6:30 AM EST 6:31 PM EST
Astronomical Twilight 6:00 AM EST 7:01 PM EST
Moon 10:40 AM EST (12/6) 9:55 PM EST (12/6)
Length of Visible Light 11h 00m
Length of Day
10h 06m
Waxing Crescent, 19% of the Moon is Illuminated
Dec 6
Waxing Crescent
Dec 9
First Quarter
Dec 17
Full
Dec 25
Last Quarter
Jan 1
New

Hourly Weather History & Observations

Time (EST) Temp. Dew Point Humidity Pressure Visibility Wind Dir Wind Speed Gust Speed Precip Events Conditions
12:26 AM 69.8 °F 66.2 °F 88% 30.06 in 10.0 mi SSW 5.8 mph - N/A   Overcast
12:51 AM 69.1 °F 66.0 °F 90% 30.06 in 10.0 mi SSW 9.2 mph - N/A   Overcast
1:51 AM 69.1 °F 66.0 °F 90% 30.04 in 10.0 mi South 9.2 mph - N/A   Overcast
2:51 AM 69.1 °F 66.0 °F 90% 30.03 in 10.0 mi SSW 8.1 mph - N/A   Overcast
3:51 AM 68.0 °F 66.0 °F 93% 30.03 in 10.0 mi South 9.2 mph - N/A   Overcast
4:51 AM 68.0 °F 64.9 °F 90% 30.03 in 10.0 mi SSW 8.1 mph - N/A   Overcast
5:51 AM 68.0 °F 66.0 °F 93% 30.03 in 7.0 mi SSW 5.8 mph - N/A   Overcast
6:51 AM 69.1 °F 66.0 °F 90% 30.04 in 9.0 mi SSW 6.9 mph - N/A   Overcast
7:03 AM 69.8 °F 66.2 °F 88% 30.06 in 9.0 mi SSW 6.9 mph - N/A   Overcast
7:51 AM 68.0 °F 66.0 °F 93% 30.06 in 6.0 mi South 9.2 mph - N/A   Overcast
8:27 AM 68.0 °F 66.2 °F 94% 30.07 in 2.5 mi South 5.8 mph - 0.01 in Rain Light Rain
8:34 AM 68.0 °F 66.2 °F 94% 30.08 in 5.0 mi South 3.5 mph - 0.01 in Rain Light Rain
8:51 AM 68.0 °F 66.9 °F 96% 30.07 in 5.0 mi SSW 6.9 mph - 0.01 in   Overcast
9:51 AM 70.0 °F 66.9 °F 90% 30.08 in 9.0 mi SSW 10.4 mph - 0.00 in   Overcast
10:17 AM 69.8 °F 66.2 °F 88% 30.10 in 7.0 mi SSW 6.9 mph - 0.00 in Rain Light Rain
10:51 AM 72.0 °F 66.9 °F 84% 30.08 in 10.0 mi SSW 10.4 mph 18.4 mph 0.00 in   Overcast
11:19 AM 73.4 °F 66.2 °F 78% 30.09 in 10.0 mi SSW 10.4 mph - N/A   Overcast
11:51 AM 73.0 °F 66.0 °F 79% 30.06 in 10.0 mi SSW 11.5 mph 21.9 mph N/A   Overcast
12:51 PM 75.0 °F 66.0 °F 73% 30.03 in 10.0 mi SSW 11.5 mph - N/A   Overcast
1:51 PM 75.9 °F 64.9 °F 69% 30.01 in 10.0 mi SW 13.8 mph 25.3 mph N/A   Mostly Cloudy
2:01 PM 75.2 °F 66.2 °F 73% 30.02 in 9.0 mi SW 15.0 mph 21.9 mph N/A   Overcast
2:11 PM 75.2 °F 64.4 °F 69% 30.02 in 10.0 mi SW 13.8 mph 24.2 mph N/A   Overcast
2:51 PM 75.9 °F 66.0 °F 71% 30.01 in 10.0 mi SW 15.0 mph - 0.00 in   Overcast
3:51 PM 75.9 °F 66.0 °F 71% 30.01 in 10.0 mi SSW 12.7 mph - N/A   Partly Cloudy
4:51 PM 75.9 °F 66.0 °F 71% 30.01 in 10.0 mi SSW 5.8 mph - N/A   Mostly Cloudy
5:51 PM 75.0 °F 66.0 °F 73% 30.01 in 10.0 mi SSW 6.9 mph - N/A   Mostly Cloudy
6:51 PM 73.0 °F 66.0 °F 79% 30.02 in 10.0 mi SSW 8.1 mph - N/A   Partly Cloudy
7:51 PM 72.0 °F 66.0 °F 81% 30.03 in 10.0 mi SW 8.1 mph - N/A   Clear
8:51 PM 71.1 °F 66.0 °F 84% 30.04 in 10.0 mi SSW 8.1 mph - N/A   Partly Cloudy
9:11 PM 71.6 °F 66.2 °F 83% 30.04 in 10.0 mi SSW 9.2 mph - N/A   Mostly Cloudy
9:20 PM 71.6 °F 66.2 °F 83% 30.04 in 10.0 mi SSW 12.7 mph 18.4 mph N/A   Scattered Clouds
9:46 PM 71.6 °F 66.2 °F 83% 30.04 in 10.0 mi SW 11.5 mph - N/A   Mostly Cloudy
9:51 PM 71.1 °F 66.0 °F 84% 30.04 in 10.0 mi SW 11.5 mph - N/A   Mostly Cloudy
10:51 PM 71.1 °F 66.9 °F 87% 30.05 in 10.0 mi SSW 10.4 mph - N/A   Overcast
11:39 PM 66.2 °F 62.6 °F 88% 30.08 in 10.0 mi NNW 11.5 mph - 0.02 in   Overcast
11:46 PM 66.2 °F 62.6 °F 88% 30.08 in 10.0 mi NNW 11.5 mph - 0.02 in   Overcast
11:51 PM 66.0 °F 62.1 °F 87% 30.07 in 10.0 mi NNW 10.4 mph - 0.02 in   Overcast